Terminal Aerodrome Forecast
Issued by NWS

Home | Current Version | Previous Version | Text Only | Print | Product List | Glossary On
Versions: 1 2 3 4 5 6 7 8 9 10 11 12 13 14 15 16 17 18 19 20 21 22 23 24 25 26 27 28 29 30 31 32 33 34 35 36 37 38 39 40 41 42 43 44 45
000
FTAK31 PANC 020538
TAFACD
TAF
PACD 020538Z 0206/0306 15015KT P6SM FEW015 SCT050 BKN200
     FM020900 16010KT P6SM VCFG SCT006 BKN040
     FM021900 13015G25KT P6SM SCT015 BKN050=

USA.gov is the U.S. government's official web portal to all federal, state and local government web resources and services.